| time (UTC) | temp C | wind direction | speed KPH | gust KPH | rain 1hr cm | rain 24hr cm | rain mn cm | humidity % | barometer mb |
| 20260506153403 | 18 | 191 | 1.6 | 4.8 | 0.00 | 0.00 | 0.00 | 45 | 1016.1 |
| 20260506152903 | 18 | 56 | 3.2 | 4.8 | 0.00 | 0.00 | 0.00 | 49 | 1016.1 |
| 20260506151404 | 17 | 237 | 1.6 | 4.8 | 0.00 | 0.00 | 0.00 | 48 | 1016.1 |
| 20260506150903 | 17 | 131 | 1.6 | 4.8 | 0.00 | 0.00 | 0.00 | 49 | 1016.1 |
| 20260506150403 | 17 | 235 | 1.6 | 4.8 | 0.00 | 0.00 | 0.00 | 50 | 1016.1 |
| 20260506145903 | 17 | 107 | 0.0 | 3.2 | 0.00 | 0.00 | 0.00 | 50 | 1016.1 |
| 20260506144903 | 16 | 112 | 1.6 | 4.8 | 0.00 | 0.00 | 0.00 | 52 | 1016.0 |
| 20260506144403 | 16 | 142 | 1.6 | 4.8 | 0.00 | 0.00 | 0.00 | 52 | 1016.0 |
| 20260506143904 | 16 | 106 | 1.6 | 4.8 | 0.00 | 0.00 | 0.00 | 52 | 1016.0 |
| 20260506143403 | 16 | 131 | 1.6 | 4.8 | 0.00 | 0.00 | 0.00 | 52 | 1016.0 |
| 20260506142904 | 16 | 110 | 1.6 | 4.8 | 0.00 | 0.00 | 0.00 | 53 | 1016.0 |
| 20260506142403 | 15 | 151 | 1.6 | 4.8 | 0.00 | 0.00 | 0.00 | 53 | 1016.1 |
| 20260506141904 | 15 | 79 | 1.6 | 4.8 | 0.00 | 0.00 | 0.00 | 54 | 1016.0 |
| 20260506141403 | 15 | 127 | 1.6 | 4.8 | 0.00 | 0.00 | 0.00 | 55 | 1016.1 |
| 20260506140903 | 14 | 104 | 3.2 | 4.8 | 0.00 | 0.00 | 0.00 | 56 | 1016.0 |
| 20260506140403 | 14 | 105 | 1.6 | 4.8 | 0.00 | 0.00 | 0.00 | 57 | 1015.9 |
| 20260506135903 | 14 | 164 | 1.6 | 3.2 | 0.00 | 0.00 | 0.00 | 58 | 1015.9 |
| 20260506135403 | 14 | 107 | 1.6 | 4.8 | 0.00 | 0.00 | 0.00 | 58 | 1015.9 |
| 20260506134903 | 13 | 117 | 1.6 | 4.8 | 0.00 | 0.00 | 0.00 | 59 | 1015.9 |
| 20260506134403 | 13 | 78 | 0.0 | 1.6 | 0.00 | 0.00 | 0.00 | 62 | 1015.9 |
| 20260506133903 | 13 | 76 | 0.0 | 0.0 | 0.00 | 0.00 | 0.00 | 65 | 1015.8 |
| 20260506133403 | 12 | 75 | 0.0 | 0.0 | 0.00 | 0.00 | 0.00 | 66 | 1015.8 |
| 20260506132903 | 12 | 75 | 0.0 | 0.0 | 0.00 | 0.00 | 0.00 | 68 | 1015.8 |
| 20260506132405 | 12 | 75 | 0.0 | 0.0 | 0.00 | 0.00 | 0.00 | 68 | 1015.6 |
| 20260506131403 | 11 | 120 | 0.0 | 0.0 | 0.00 | 0.00 | 0.00 | 70 | 1015.4 |
| 20260506130903 | 11 | 125 | 0.0 | 1.6 | 0.00 | 0.00 | 0.00 | 72 | 1015.4 |
| 20260506130404 | 11 | 141 | 0.0 | 1.6 | 0.00 | 0.00 | 0.00 | 72 | 1015.2 |
| 20260506125903 | 11 | 199 | 0.0 | 1.6 | 0.00 | 0.00 | 0.00 | 73 | 1015.4 |
| 20260506125403 | 11 | 217 | 0.0 | 1.6 | 0.00 | 0.00 | 0.00 | 73 | 1015.4 |
| 20260506124903 | 11 | 217 | 0.0 | 0.0 | 0.00 | 0.00 | 0.00 | 73 | 1015.3 |
| 20260506124404 | 11 | 217 | 0.0 | 1.6 | 0.00 | 0.00 | 0.00 | 72 | 1015.4 |
| 20260506123403 | 11 | 217 | 0.0 | 1.6 | 0.00 | 0.00 | 0.00 | 72 | 1015.2 |
| 20260506122904 | 11 | 217 | 0.0 | 1.6 | 0.00 | 0.00 | 0.00 | 72 | 1015.2 |
| 20260506122403 | 11 | 217 | 0.0 | 0.0 | 0.00 | 0.00 | 0.00 | 72 | 1015.1 |
| 20260506121903 | 11 | 217 | 0.0 | 0.0 | 0.00 | 0.00 | 0.00 | 71 | 1015.1 |
| 20260506121403 | 11 | 217 | 0.0 | 0.0 | 0.00 | 0.00 | 0.00 | 71 | 1015.1 |
| 20260506120903 | 11 | 217 | 0.0 | 3.2 | 0.00 | 0.00 | 0.00 | 70 | 1015.1 |
| 20260506120403 | 12 | 217 | 1.6 | 3.2 | 0.00 | 0.00 | 0.00 | 69 | 1015.0 |
| 20260506115903 | 12 | 355 | 0.0 | 0.0 | 0.00 | 0.00 | 0.00 | 68 | 1014.9 |
| 20260506115403 | 12 | 355 | 0.0 | 1.6 | 0.00 | 0.00 | 0.00 | 67 | 1014.9 |
| 20260506114903 | 12 | 355 | 0.0 | 1.6 | 0.00 | 0.00 | 0.00 | 66 | 1014.8 |
| 20260506114403 | 12 | 355 | 0.0 | 4.8 | 0.00 | 0.00 | 0.00 | 66 | 1014.8 |
| 20260506113903 | 12 | 355 | 0.0 | 4.8 | 0.00 | 0.00 | 0.00 | 66 | 1014.8 |
| 20260506112903 | 12 | 5 | 0.0 | 3.2 | 0.00 | 0.00 | 0.00 | 66 | 1014.8 |
| 20260506112403 | 12 | 5 | 0.0 | 3.2 | 0.00 | 0.00 | 0.00 | 66 | 1014.7 |
| 20260506111904 | 12 | 5 | 0.0 | 1.6 | 0.00 | 0.00 | 0.00 | 66 | 1014.7 |
| 20260506111404 | 12 | 5 | 0.0 | 3.2 | 0.00 | 0.00 | 0.00 | 66 | 1014.7 |
| 20260506110904 | 13 | 5 | 0.0 | 3.2 | 0.00 | 0.03 | 0.00 | 65 | 1014.6 |
| 20260506105904 | 13 | 5 | 1.6 | 3.2 | 0.00 | 0.03 | 0.00 | 63 | 1014.5 |
| 20260506105404 | 13 | 5 | 0.0 | 3.2 | 0.00 | 0.03 | 0.00 | 63 | 1014.5 |
| 20260506104903 | 13 | 348 | 0.0 | 4.8 | 0.00 | 0.03 | 0.00 | 62 | 1014.5 |
| 20260506104403 | 13 | 338 | 1.6 | 4.8 | 0.00 | 0.03 | 0.00 | 62 | 1014.4 |
| 20260506103903 | 13 | 333 | 1.6 | 4.8 | 0.00 | 0.05 | 0.00 | 62 | 1014.4 |
| 20260506103403 | 13 | 349 | 1.6 | 3.2 | 0.00 | 0.05 | 0.00 | 62 | 1014.3 |
| 20260506102905 | 13 | 354 | 1.6 | 3.2 | 0.00 | 0.05 | 0.00 | 62 | 1014.3 |
| 20260506102403 | 13 | 5 | 1.6 | 3.2 | 0.00 | 0.05 | 0.00 | 62 | 1014.3 |
| 20260506101903 | 13 | 6 | 0.0 | 1.6 | 0.00 | 0.05 | 0.00 | 62 | 1014.2 |
| 20260506101403 | 12 | 5 | 0.0 | 3.2 | 0.00 | 0.08 | 0.00 | 62 | 1014.2 |
| 20260506100904 | 12 | 5 | 0.0 | 3.2 | 0.00 | 0.08 | 0.00 | 63 | 1014.1 |
| 20260506100403 | 12 | 5 | 1.6 | 1.6 | 0.00 | 0.08 | 0.00 | 62 | 1014.2 |
| 20260506095903 | 12 | 345 | 0.0 | 0.0 | 0.00 | 0.08 | 0.00 | 62 | 1014.1 |
| 20260506094903 | 12 | 345 | 0.0 | 0.0 | 0.00 | 0.08 | 0.00 | 61 | 1014.0 |
| 20260506094403 | 12 | 345 | 0.0 | 0.0 | 0.00 | 0.08 | 0.00 | 60 | 1014.0 |
| 20260506093903 | 12 | 345 | 0.0 | 0.0 | 0.00 | 0.08 | 0.00 | 60 | 1014.0 |
| 20260506093403 | 12 | 345 | 0.0 | 0.0 | 0.00 | 0.08 | 0.00 | 60 | 1014.0 |
| 20260506092904 | 12 | 345 | 0.0 | 0.0 | 0.00 | 0.08 | 0.00 | 60 | 1014.0 |
| 20260506091404 | 13 | 345 | 0.0 | 0.0 | 0.00 | 0.08 | 0.00 | 59 | 1013.9 |
| 20260506090404 | 13 | 345 | 0.0 | 0.0 | 0.00 | 0.08 | 0.00 | 58 | 1013.9 |
| 20260506084903 | 13 | 345 | 0.0 | 0.0 | 0.00 | 0.10 | 0.00 | 55 | 1014.1 |
| 20260506083903 | 13 | 345 | 0.0 | 0.0 | 0.00 | 0.10 | 0.00 | 54 | 1014.2 |
| 20260506083404 | 13 | 345 | 0.0 | 0.0 | 0.00 | 0.10 | 0.00 | 54 | 1014.2 |
| 20260506082903 | 14 | 345 | 0.0 | 0.0 | 0.00 | 0.10 | 0.00 | 52 | 1014.2 |
| 20260506082404 | 15 | 345 | 0.0 | 0.0 | 0.00 | 0.13 | 0.00 | 50 | 1014.2 |
| 20260506081404 | 15 | 345 | 0.0 | 1.6 | 0.00 | 0.15 | 0.00 | 47 | 1014.2 |
| 20260506080903 | 15 | 345 | 0.0 | 1.6 | 0.00 | 0.18 | 0.00 | 47 | 1014.2 |
| 20260506080403 | 15 | 342 | 0.0 | 3.2 | 0.00 | 0.18 | 0.00 | 47 | 1014.2 |
| 20260506073403 | 15 | 343 | 0.0 | 1.6 | 0.00 | 0.23 | 0.00 | 48 | 1014.2 |
| 20260506072903 | 15 | 343 | 0.0 | 1.6 | 0.00 | 0.25 | 0.00 | 47 | 1014.2 |
| 20260506072404 | 15 | 343 | 0.0 | 1.6 | 0.00 | 0.28 | 0.00 | 46 | 1014.2 |
| 20260506071903 | 15 | 343 | 0.0 | 1.6 | 0.00 | 0.28 | 0.00 | 46 | 1014.2 |
| 20260506071404 | 15 | 348 | 0.0 | 1.6 | 0.00 | 0.28 | 0.00 | 45 | 1014.2 |
| 20260506070903 | 16 | 344 | 0.0 | 1.6 | 0.00 | 0.28 | 0.00 | 46 | 1014.2 |
| 20260506062403 | 17 | 298 | 0.0 | 3.2 | 0.00 | 0.38 | 0.30 | 40 | 1013.9 |
| 20260506061903 | 17 | 296 | 0.0 | 3.2 | 0.00 | 0.38 | 0.30 | 40 | 1013.9 |
| 20260506061403 | 17 | 275 | 0.0 | 3.2 | 0.00 | 0.38 | 0.30 | 39 | 1014.0 |
| 20260506060404 | 17 | 291 | 0.0 | 4.8 | 0.00 | 0.38 | 0.30 | 38 | 1013.8 |
| 20260506051404 | 18 | 247 | 1.6 | 4.8 | 0.00 | 0.43 | 0.30 | 37 | 1013.6 |
| 20260506050904 | 18 | 267 | 1.6 | 9.7 | 0.00 | 0.43 | 0.30 | 37 | 1013.5 |
| 20260506050404 | 18 | 230 | 1.6 | 9.7 | 0.00 | 0.43 | 0.30 | 37 | 1013.4 |
| 20260506044904 | 18 | 239 | 4.8 | 11.3 | 0.00 | 0.43 | 0.30 | 38 | 1013.3 |
| 20260506044403 | 18 | 235 | 3.2 | 4.8 | 0.00 | 0.43 | 0.30 | 39 | 1013.3 |
| 20260506043903 | 18 | 237 | 3.2 | 4.8 | 0.00 | 0.43 | 0.30 | 39 | 1013.3 |
| 20260506043403 | 18 | 233 | 1.6 | 4.8 | 0.00 | 0.43 | 0.30 | 38 | 1013.2 |
| 20260506042403 | 19 | 246 | 1.6 | 4.8 | 0.00 | 0.43 | 0.30 | 38 | 1013.2 |
| 20260506041903 | 19 | 244 | 1.6 | 4.8 | 0.00 | 0.46 | 0.30 | 38 | 1013.1 |
| 20260506041403 | 19 | 243 | 1.6 | 3.2 | 0.00 | 0.46 | 0.30 | 38 | 1013.1 |
| 20260506040904 | 19 | 134 | 0.0 | 3.2 | 0.00 | 0.46 | 0.30 | 37 | 1013.0 |
| 20260506040404 | 19 | 211 | 1.6 | 3.2 | 0.00 | 0.48 | 0.30 | 37 | 1012.9 |
| 20260506035904 | 20 | 219 | 1.6 | 4.8 | 0.00 | 0.48 | 0.30 | 37 | 1012.5 |
| 20260506035403 | 20 | 252 | 1.6 | 8.0 | 0.00 | 0.51 | 0.30 | 36 | 1012.5 |
| 20260506034903 | 20 | 225 | 3.2 | 8.0 | 0.00 | 0.53 | 0.30 | 37 | 1012.4 |
| 20260506034403 | 20 | 242 | 3.2 | 12.9 | 0.00 | 0.53 | 0.30 | 38 | 1012.3 |
| 20260506033904 | 20 | 247 | 4.8 | 12.9 | 0.00 | 0.53 | 0.30 | 39 | 1012.3 |
| 20260506033404 | 20 | 229 | 4.8 | 14.5 | 0.00 | 0.53 | 0.30 | 39 | 1012.1 |
| 20260506032404 | 20 | 211 | 3.2 | 11.3 | 0.00 | 0.53 | 0.30 | 40 | 1012.0 |
| 20260506031904 | 20 | 253 | 3.2 | 9.7 | 0.00 | 0.53 | 0.30 | 39 | 1011.9 |
| 20260506030904 | 20 | 240 | 3.2 | 11.3 | 0.00 | 0.53 | 0.30 | 36 | 1011.7 |
| 20260506030404 | 20 | 232 | 3.2 | 9.7 | 0.00 | 0.53 | 0.30 | 35 | 1011.6 |
| 20260506025904 | 20 | 261 | 3.2 | 11.3 | 0.00 | 0.53 | 0.30 | 35 | 1011.5 |
| 20260506025403 | 20 | 256 | 1.6 | 11.3 | 0.00 | 0.53 | 0.30 | 35 | 1011.5 |
| 20260506024904 | 20 | 235 | 3.2 | 12.9 | 0.00 | 0.53 | 0.30 | 34 | 1011.4 |
| 20260506024403 | 20 | 230 | 4.8 | 12.9 | 0.00 | 0.53 | 0.30 | 34 | 1011.3 |
| 20260506023904 | 21 | 225 | 3.2 | 11.3 | 0.00 | 0.53 | 0.30 | 34 | 1011.3 |
| 20260506022903 | 21 | 224 | 4.8 | 16.1 | 0.00 | 0.53 | 0.30 | 34 | 1011.1 |
| 20260506021903 | 21 | 228 | 4.8 | 12.9 | 0.00 | 0.53 | 0.30 | 34 | 1011.0 |
| 20260506021404 | 21 | 235 | 4.8 | 12.9 | 0.00 | 0.53 | 0.30 | 33 | 1010.8 |
| 20260506020904 | 21 | 231 | 4.8 | 19.3 | 0.00 | 0.53 | 0.30 | 33 | 1010.7 |
| 20260506020403 | 21 | 242 | 4.8 | 19.3 | 0.00 | 0.53 | 0.30 | 33 | 1010.6 |
| 20260506015403 | 21 | 228 | 4.8 | 16.1 | 0.00 | 0.56 | 0.30 | 31 | 1010.5 |
| 20260506014403 | 21 | 240 | 8.0 | 19.3 | 0.00 | 0.56 | 0.30 | 30 | 1010.4 |
| 20260506013904 | 22 | 239 | 8.0 | 19.3 | 0.00 | 0.58 | 0.30 | 28 | 1010.4 |
| 20260506013404 | 22 | 235 | 6.4 | 19.3 | 0.00 | 0.58 | 0.30 | 28 | 1010.3 |
| 20260506012903 | 22 | 241 | 9.7 | 19.3 | 0.00 | 0.58 | 0.30 | 28 | 1010.3 |
| 20260506012404 | 22 | 237 | 9.7 | 22.5 | 0.00 | 0.58 | 0.30 | 28 | 1010.3 |
| 20260506011904 | 22 | 232 | 9.7 | 22.5 | 0.00 | 0.58 | 0.30 | 28 | 1010.2 |
| 20260506011404 | 22 | 236 | 9.7 | 22.5 | 0.00 | 0.58 | 0.30 | 28 | 1010.2 |
| 20260506010403 | 22 | 236 | 9.7 | 25.7 | 0.00 | 0.58 | 0.30 | 29 | 1010.2 |
| 20260506005903 | 22 | 239 | 11.3 | 25.7 | 0.00 | 0.58 | 0.30 | 29 | 1010.1 |
| 20260506005403 | 22 | 230 | 11.3 | 25.7 | 0.00 | 0.58 | 0.30 | 29 | 1010.1 |
| 20260506004403 | 23 | 232 | 8.0 | 24.1 | 0.00 | 0.58 | 0.30 | 29 | 1010.1 |
| 20260506003904 | 23 | 253 | 14.5 | 24.1 | 0.00 | 0.58 | 0.30 | 28 | 1010.0 |
| 20260506002903 | 23 | 229 | 8.0 | 22.5 | 0.00 | 0.58 | 0.30 | 28 | 1009.9 |
| 20260506002404 | 23 | 237 | 8.0 | 22.5 | 0.00 | 0.58 | 0.30 | 28 | 1009.8 |
| 20260506001903 | 24 | 235 | 9.7 | 19.3 | 0.00 | 0.58 | 0.30 | 26 | 1009.9 |
| 20260506001404 | 24 | 236 | 8.0 | 27.4 | 0.00 | 0.58 | 0.30 | 26 | 1009.7 |
| 20260506000904 | 24 | 228 | 11.3 | 27.4 | 0.00 | 0.58 | 0.30 | 26 | 1009.8 |
| 20260505235903 | 25 | 235 | 9.7 | 22.5 | 0.00 | 0.58 | 0.30 | 26 | 1009.6 |
| 20260505235403 | 25 | 239 | 8.0 | 22.5 | 0.00 | 0.58 | 0.30 | 25 | 1009.6 |
| 20260505234903 | 25 | 198 | 8.0 | 22.5 | 0.00 | 0.58 | 0.30 | 26 | 1009.5 |
| 20260505234404 | 25 | 242 | 11.3 | 22.5 | 0.00 | 0.58 | 0.30 | 26 | 1009.4 |
| 20260505233903 | 25 | 233 | 8.0 | 24.1 | 0.00 | 0.58 | 0.30 | 26 | 1009.4 |
| 20260505233403 | 25 | 229 | 9.7 | 24.1 | 0.00 | 0.58 | 0.30 | 25 | 1009.4 |
| 20260505232903 | 25 | 231 | 9.7 | 24.1 | 0.00 | 0.58 | 0.30 | 25 | 1009.4 |
| 20260505232403 | 25 | 222 | 6.4 | 22.5 | 0.00 | 0.58 | 0.30 | 25 | 1009.3 |
| 20260505231903 | 25 | 219 | 9.7 | 22.5 | 0.00 | 0.58 | 0.30 | 25 | 1009.4 |
| 20260505231403 | 25 | 210 | 8.0 | 22.5 | 0.00 | 0.58 | 0.30 | 25 | 1009.4 |
| 20260505230903 | 25 | 237 | 9.7 | 19.3 | 0.00 | 0.58 | 0.30 | 26 | 1009.4 |
| 20260505230403 | 25 | 227 | 6.4 | 19.3 | 0.00 | 0.58 | 0.30 | 27 | 1009.4 |
| 20260505225404 | 25 | 229 | 9.7 | 25.7 | 0.00 | 0.58 | 0.30 | 26 | 1009.4 |
| 20260505224903 | 25 | 227 | 8.0 | 19.3 | 0.00 | 0.58 | 0.30 | 27 | 1009.4 |
| 20260505224403 | 25 | 233 | 6.4 | 19.3 | 0.00 | 0.58 | 0.30 | 28 | 1009.5 |
| 20260505223903 | 24 | 225 | 4.8 | 19.3 | 0.00 | 0.58 | 0.30 | 27 | 1009.6 |
| 20260505223403 | 24 | 231 | 8.0 | 22.5 | 0.00 | 0.58 | 0.30 | 29 | 1009.8 |
| 20260505222904 | 24 | 228 | 9.7 | 22.5 | 0.00 | 0.58 | 0.30 | 28 | 1009.7 |
| 20260505222404 | 24 | 204 | 8.0 | 20.9 | 0.00 | 0.58 | 0.30 | 28 | 1009.8 |
| 20260505221903 | 25 | 243 | 8.0 | 22.5 | 0.00 | 0.58 | 0.30 | 28 | 1009.9 |
| 20260505220903 | 25 | 199 | 4.8 | 19.3 | 0.00 | 0.58 | 0.30 | 28 | 1009.9 |
| 20260505220403 | 25 | 234 | 8.0 | 19.3 | 0.00 | 0.58 | 0.30 | 28 | 1009.9 |
| 20260505215904 | 25 | 263 | 6.4 | 19.3 | 0.00 | 0.58 | 0.30 | 28 | 1010.0 |
| 20260505215403 | 25 | 224 | 8.0 | 27.4 | 0.00 | 0.58 | 0.30 | 28 | 1010.1 |
| 20260505214904 | 25 | 236 | 11.3 | 27.4 | 0.00 | 0.58 | 0.30 | 28 | 1010.1 |
| 20260505214403 | 25 | 246 | 8.0 | 16.1 | 0.00 | 0.58 | 0.30 | 29 | 1010.1 |
| 20260505213404 | 25 | 222 | 6.4 | 19.3 | 0.00 | 0.58 | 0.30 | 30 | 1010.2 |
| 20260505211904 | 23 | 229 | 3.2 | 19.3 | 0.00 | 0.58 | 0.30 | 35 | 1010.5 |
| 20260505211403 | 23 | 228 | 6.4 | 19.3 | 0.00 | 0.58 | 0.30 | 35 | 1010.5 |
| 20260505210904 | 23 | 236 | 8.0 | 19.3 | 0.00 | 0.58 | 0.30 | 36 | 1010.6 |
| 20260505205903 | 24 | 234 | 9.7 | 20.9 | 0.00 | 0.58 | 0.30 | 39 | 1010.7 |
| 20260505204904 | 23 | 227 | 6.4 | 19.3 | 0.00 | 0.58 | 0.30 | 39 | 1010.6 |
| 20260505204403 | 24 | 245 | 4.8 | 12.9 | 0.00 | 0.58 | 0.30 | 40 | 1010.7 |
| 20260505203903 | 24 | 177 | 4.8 | 19.3 | 0.00 | 0.58 | 0.30 | 41 | 1010.8 |
| 20260505202904 | 24 | 217 | 6.4 | 19.3 | 0.00 | 0.58 | 0.30 | 37 | 1010.8 |
| 20260505201903 | 23 | 241 | 9.7 | 19.3 | 0.00 | 0.58 | 0.30 | 41 | 1010.9 |
| 20260505201404 | 23 | 231 | 4.8 | 19.3 | 0.00 | 0.58 | 0.30 | 42 | 1010.9 |
| 20260505200903 | 23 | 220 | 4.8 | 16.1 | 0.00 | 0.58 | 0.30 | 44 | 1010.9 |
| 20260505200403 | 23 | 244 | 3.2 | 16.1 | 0.00 | 0.58 | 0.30 | 41 | 1011.1 |
| 20260505195904 | 23 | 223 | 4.8 | 14.5 | 0.00 | 0.58 | 0.30 | 45 | 1011.1 |
| 20260505195404 | 23 | 239 | 4.8 | 14.5 | 0.00 | 0.58 | 0.30 | 43 | 1011.1 |
| 20260505194903 | 23 | 249 | 4.8 | 14.5 | 0.00 | 0.58 | 0.30 | 44 | 1011.0 |
| 20260505194404 | 23 | 221 | 3.2 | 16.1 | 0.00 | 0.58 | 0.30 | 45 | 1011.2 |
| 20260505193904 | 23 | 227 | 4.8 | 16.1 | 0.00 | 0.58 | 0.30 | 46 | 1011.3 |
| 20260505193404 | 22 | 237 | 6.4 | 19.3 | 0.00 | 0.58 | 0.30 | 48 | 1011.3 |
| 20260505192903 | 22 | 239 | 9.7 | 19.3 | 0.00 | 0.58 | 0.30 | 47 | 1011.2 |
| 20260505192404 | 23 | 245 | 8.0 | 16.1 | 0.00 | 0.58 | 0.30 | 47 | 1011.1 |
| 20260505191904 | 23 | 212 | 6.4 | 14.5 | 0.00 | 0.58 | 0.30 | 48 | 1011.2 |
| 20260505191403 | 22 | 257 | 3.2 | 19.3 | 0.00 | 0.58 | 0.30 | 50 | 1011.4 |
| 20260505190903 | 22 | 233 | 8.0 | 19.3 | 0.00 | 0.58 | 0.30 | 51 | 1011.6 |
| 20260505190403 | 22 | 216 | 3.2 | 12.9 | 0.00 | 0.58 | 0.30 | 50 | 1011.6 |
| 20260505185903 | 22 | 161 | 4.8 | 9.7 | 0.00 | 0.58 | 0.30 | 50 | 1011.6 |
| 20260505185403 | 22 | 246 | 1.6 | 9.7 | 0.00 | 0.58 | 0.30 | 53 | 1011.7 |
| 20260505184904 | 21 | 250 | 1.6 | 4.8 | 0.00 | 0.58 | 0.30 | 53 | 1011.7 |
| 20260505184403 | 21 | 345 | 3.2 | 4.8 | 0.00 | 0.58 | 0.30 | 54 | 1011.9 |
| 20260505183903 | 21 | 231 | 1.6 | 4.8 | 0.00 | 0.58 | 0.30 | 53 | 1011.7 |
| 20260505183404 | 21 | 309 | 3.2 | 8.0 | 0.00 | 0.58 | 0.30 | 52 | 1011.8 |
| 20260505182904 | 21 | 151 | 3.2 | 8.0 | 0.00 | 0.58 | 0.30 | 53 | 1011.9 |
| 20260505182404 | 21 | 160 | 1.6 | 4.8 | 0.00 | 0.58 | 0.30 | 55 | 1012.0 |
| 20260505181903 | 21 | 225 | 1.6 | 4.8 | 0.00 | 0.58 | 0.30 | 56 | 1012.0 |
| 20260505181403 | 20 | 255 | 1.6 | 4.8 | 0.00 | 0.58 | 0.30 | 57 | 1012.0 |
| 20260505180904 | 19 | 207 | 0.0 | 4.8 | 0.00 | 0.58 | 0.30 | 59 | 1012.1 |
| 20260505180404 | 20 | 238 | 1.6 | 4.8 | 0.00 | 0.58 | 0.30 | 58 | 1012.2 |
| 20260505175403 | 20 | 276 | 1.6 | 4.8 | 0.00 | 0.58 | 0.30 | 58 | 1012.4 |
| 20260505174403 | 19 | 245 | 1.6 | 4.8 | 0.00 | 0.58 | 0.30 | 59 | 1012.5 |
| 20260505173904 | 20 | 261 | 1.6 | 4.8 | 0.00 | 0.58 | 0.30 | 61 | 1012.4 |
| 20260505173403 | 19 | 48 | 0.0 | 4.8 | 0.00 | 0.58 | 0.30 | 61 | 1012.6 |
| 20260505172403 | 19 | 329 | 1.6 | 4.8 | 0.00 | 0.58 | 0.30 | 60 | 1012.6 |
| 20260505171903 | 19 | 192 | 1.6 | 4.8 | 0.00 | 0.58 | 0.30 | 58 | 1012.4 |
| 20260505171404 | 19 | 275 | 1.6 | 4.8 | 0.00 | 0.58 | 0.30 | 60 | 1012.5 |
| 20260505170403 | 18 | 192 | 1.6 | 4.8 | 0.00 | 0.58 | 0.30 | 60 | 1012.5 |
| 20260505165903 | 19 | 231 | 1.6 | 4.8 | 0.00 | 0.58 | 0.30 | 60 | 1012.4 |
| 20260505165404 | 19 | 206 | 3.2 | 4.8 | 0.00 | 0.58 | 0.30 | 61 | 1012.4 |
| 20260505164903 | 19 | 247 | 0.0 | 4.8 | 0.00 | 0.58 | 0.30 | 63 | 1012.4 |
| 20260505164404 | 18 | 198 | 0.0 | 8.0 | 0.00 | 0.58 | 0.30 | 62 | 1012.4 |
| 20260505163904 | 18 | 206 | 3.2 | 8.0 | 0.00 | 0.58 | 0.30 | 63 | 1012.5 |
| 20260505163403 | 18 | 225 | 3.2 | 4.8 | 0.00 | 0.58 | 0.30 | 64 | 1012.5 |
| 20260505162904 | 18 | 339 | 1.6 | 4.8 | 0.00 | 0.58 | 0.30 | 63 | 1012.3 |
| 20260505161904 | 18 | 229 | 1.6 | 8.0 | 0.00 | 0.58 | 0.30 | 64 | 1012.5 |
| 20260505161405 | 18 | 211 | 3.2 | 8.0 | 0.00 | 0.58 | 0.30 | 66 | 1012.5 |
| 20260505160903 | 17 | 155 | 1.6 | 4.8 | 0.00 | 0.58 | 0.30 | 68 | 1012.4 |
| 20260505160404 | 17 | 237 | 3.2 | 4.8 | 0.00 | 0.58 | 0.30 | 66 | 1012.4 |